Regional Weather Roundup
Issued by NWS

Home | Current Version | Previous Version | Graphics & Text | Print | Product List | Glossary On
Versions: 1 2 3 4 5 6 7 8 9 10 11 12 13 14 15 16 17 18 19 20 21 22 23 24 25 26 27 28 29 30 31 32 33 34 35 36 37 38 39 40 41 42 43 44 45 46 47 48 49 50
299
ASUS43 KLSX 251110
RWRMO

WEATHER SUMMARY FOR MISSOURI
NATIONAL WEATHER SERVICE SPRINGFIELD MO
600 AM CDT WED MAY 25 2016

NOTE: "FAIR" INDICATES FEW OR NO CLOUDS BELOW 12,000 FEET WITH NO
       SIGNIFICANT WEATHER AND/OR OBSTRUCTIONS TO VISIBILITY.
       CURRENT SKY AND/OR WEATHER CONDITIONS ARE NOT AVAILABLE FOR
       CHILLICOTHE AND FARMINGTON.

MOZ001>031-035>038-043-044-053-054-251200-
...NORTHERN AND WESTERN MISSOURI...

CITY           SKY/WX    TMP DP  RH WIND       PRES   REMARKS
KANSAS CTY INT CLOUDY    69  54  58 S17G23    29.79F
KANSAS C DTWN  CLOUDY    70  57  63 SW13G18   29.78F
LEE`S SUMMIT   CLOUDY    65  58  78 S16       29.82F
ST JOSEPH      MOCLDY    69  56  62 S15       29.77R
CHILLICOTHE      N/A     66  63  90 SE6       29.86F
KIRKSVILLE     CLOUDY    64  62  93 S10       29.93S

$$
MOZ066>068-077>081-088>096-101>105-251200-
...SOUTHWEST MISSOURI...

CITY           SKY/WX    TMP DP  RH WIND       PRES   REMARKS
SPRINGFIELD    LGT RAIN  67  63  87 SW10      30.04R
JOPLIN         LGT RAIN  66  63  90 E3        30.04R

$$
MOZ032>034-039>042-045>050-055>058-069>072-251200-
...CENTRAL MISSOURI...

CITY           SKY/WX    TMP DP  RH WIND       PRES   REMARKS
COLUMBIA       CLOUDY    63  62  97 S7        29.98R
JEFFERSON CITY CLOUDY    63  61  93 E3        29.98R
ROLLA          CLOUDY    62  60  93 SW10      30.00R
SEDALIA        CLOUDY    65  63  93 S8        29.96F
WHITEMAN AFB   MOCLDY    64  64 100 S8        29.91F
WARRENSBURG    CLOUDY    63  61  94 SE7       29.88F

$$
MOZ051-052-059>065-251200-
...EAST CENTRAL MISSOURI...

CITY           SKY/WX    TMP DP  RH WIND       PRES   REMARKS
ST LOUIS INTL  CLOUDY    66  60  81 SE7       30.02R
SPIRIT OF STL  CLOUDY    60  60 100 CALM      30.01R
ST CHARLES     CLOUDY    62  61  96 E6        30.01R

$$
MOZ072>076-082>087-097>100-106>115-251200-
...SOUTH CENTRAL AND SOUTHEAST MISSOURI...

CITY           SKY/WX    TMP DP  RH WIND       PRES   REMARKS
CAPE GIRARDEAU CLOUDY    65  63  93 SW3       30.07R
FARMINGTON     CLOUDY    62  60  93 S7        30.07R
POPLAR BLUFF   CLOUDY    63  61  93 CALM      30.07R
WEST PLAINS    FOG       60  57  89 CALM      30.07R VSB 1

$$




USA.gov is the U.S. government's official web portal to all federal, state and local government web resources and services.